Tracking 18980 objects as of 21-Feb-2018
HD Live streaming from Space Station
objects crossing your sky now

NAVSTAR 16 (USA 47)

Track NAVSTAR 16 (USA 47) now!
NAVSTAR 16 (USA 47) is classified as:


NORAD ID: 20302
Int'l Code: 1989-085A
Perigee: 21,198.7 km
Apogee: 21,242.3 km
Inclination: 55.1 °
Period: 760.2 minutes
Semi major axis: 27591 km
RCS: 1.9976 m2 (large)
Launch date: October 21, 1989
Source: United States (US)
Launch site: AIR FORCE EASTERN TEST RANGE (AFETR)
PRN:
aabbcc
Your satellite tracking list
Your tracking list is empty




NASA's NSSDC Master Catalog

Two Line Element Set (TLE):
1 20302U 89085A   18052.18168580  .00000003  00000-0  00000+0 0  9992
2 20302  55.0560 291.8586 0007897  42.1053 253.7772  1.89425800200984
Source of the keplerian elements: AFSPC